CCA1063 ZBAD-ZSPD

Flight info

Callsign CCA1063
Flight time N/A
Altitude 35100
Route ELKUR4K ELKUR W40 YQG/K0835S1100 W142 DALIM/K0832S1070 A593 DPX A470 DALNU W166 ZJ W167 SASAN R343 EKIMU
Aircraft A320/M-SDE3FGHIRWY/LB1

Departure

Time 2026-04-24 10:00
Airport Beijing Daxing International Airport (ZBAD)

Arrival

Time N/A
Airport Shanghai Pudong International Airport (ZSPD)
Time Latitude Longitude Altitude Speed Heading
2026-04-24 08:58 39.51151 116.40318 85 ft 0 kts 104°
2026-04-24 09:26 39.51152 116.40318 85 ft 0 kts 104°
2026-04-24 09:39 39.51152 116.40317 85 ft 0 kts 104°
2026-04-24 09:49 39.51152 116.40315 85 ft 1 kts 104°
2026-04-24 09:49 39.51157 116.40293 73 ft 3 kts 104°
2026-04-24 09:49 39.51162 116.40268 88 ft 3 kts 104°
2026-04-24 09:49 39.51167 116.40242 89 ft 3 kts 104°
2026-04-24 09:50 39.51171 116.40223 86 ft 3 kts 98°
2026-04-24 09:50 39.51171 116.40198 85 ft 3 kts 67°
2026-04-24 09:50 39.51160 116.40178 90 ft 3 kts 28°
2026-04-24 09:50 39.51142 116.40169 88 ft 3 kts
2026-04-24 09:51 39.51122 116.40168 87 ft 3 kts 357°
2026-04-24 09:51 39.51102 116.40170 85 ft 2 kts 353°
2026-04-24 09:51 39.51094 116.40171 87 ft 0 kts 354°
2026-04-24 09:53 39.51096 116.40171 85 ft 2 kts 354°
2026-04-24 09:54 39.51112 116.40165 88 ft 4 kts 337°
2026-04-24 09:54 39.51127 116.40111 87 ft 12 kts 266°
2026-04-24 09:54 39.51118 116.39994 86 ft 14 kts 270°
2026-04-24 09:54 39.51197 116.39932 87 ft 16 kts 353°
2026-04-24 09:55 39.51314 116.39914 89 ft 18 kts 355°
2026-04-24 09:55 39.51449 116.39892 91 ft 20 kts 351°
2026-04-24 09:55 39.51593 116.39870 91 ft 22 kts 347°
2026-04-24 09:55 39.51720 116.39848 88 ft 19 kts 351°
2026-04-24 09:56 39.51798 116.39800 91 ft 10 kts 291°
2026-04-24 09:56 39.51792 116.39733 94 ft 5 kts 264°
2026-04-24 09:56 39.51787 116.39679 96 ft 10 kts 264°
2026-04-24 09:56 39.51777 116.39572 97 ft 13 kts 261°
2026-04-24 09:57 39.51765 116.39421 89 ft 21 kts 263°
2026-04-24 09:57 39.51744 116.39237 85 ft 22 kts 263°
2026-04-24 09:57 39.51724 116.39034 89 ft 23 kts 262°
2026-04-24 09:57 39.51716 116.38948 87 ft 4 kts 263°
2026-04-24 09:58 39.51713 116.38915 89 ft 3 kts 263°
2026-04-24 09:58 39.51710 116.38883 91 ft 5 kts 263°
2026-04-24 09:58 39.51704 116.38817 93 ft 13 kts 263°
2026-04-24 09:58 39.51677 116.38740 96 ft 9 kts 174°
2026-04-24 09:59 39.51630 116.38751 98 ft 1 kts 172°
2026-04-24 09:59 39.51624 116.38753 98 ft 2 kts 173°
2026-04-24 09:59 39.51525 116.38767 95 ft 42 kts 174°
2026-04-24 09:59 39.50982 116.38854 97 ft 110 kts 173°
2026-04-24 10:00 39.50041 116.38999 94 ft 161 kts 172°
2026-04-24 10:00 39.49320 116.39095 118 ft 184 kts 175°
2026-04-24 10:00 39.47988 116.39343 479 ft 203 kts 173°
2026-04-24 10:00 39.46531 116.39644 951 ft 221 kts 173°
2026-04-24 10:01 39.44997 116.39878 1789 ft 220 kts 176°
2026-04-24 10:01 39.43467 116.40079 2501 ft 228 kts 177°
2026-04-24 10:01 39.41848 116.40289 3070 ft 243 kts 176°
2026-04-24 10:01 39.40685 116.40448 3426 ft 253 kts 176°